Jan Elsnik

Recruteur - NK Celje
4 Juin 2028
Dimanche
Processus

Personnalité

Adaptabilité (8) Ambition (18) Controverse (9) Loyauté (14) Pression (2) Professionnalisme (1) Sportivité (11) Tempérament (19)

Profil

Style d'entraînement Démocratique
Diplôme National B
Détermination 8
Gestion des joueurs 9
Motivation 7
Discipline 3
Satisfaction professionnelle
100%
Fatigue
0%
Rôle Recruteur
Salaire 19.5K p/s
Contrat 14.03.2029

Performance

Comportement Bon
Efficacité de l'entraînement
39%
Développement des joueurs
55%
Prévention des blessures
20%
Mise en place tactique
55%

Événements récents

A participé à une réunion de recrutement maintenant
A recommandé une cible de transfert maintenant
A recommandé une cible de transfert maintenant
A recommandé une cible de transfert maintenant
A recommandé une cible de transfert 7j
A recommandé une cible de transfert 7j
A recommandé une cible de transfert 7j
A recommandé une cible de transfert 7j

Suivi en cours

57
Joueur Club Statut Capacité Confiance Observé Dernière observation Dernier vote
Federico Versaci Talleres Actif 102 / 118 40% 1 09.01.2028 -
Matías Machado Racing Actif 119 / 103 40% 1 09.01.2028 -
Milan Tučić ND Gorica Actif 106 / 101 69% 1 07.01.2028 -
Leo Rimac Koper Actif 111 / 113 69% 1 01.01.2028 Approuver
Victor Hernandez Santa Fe Actif 117 / 121 40% 1 31.12.2027 -
Diego Vargas Universidad de Concepcion Actif 83 / 84 40% 1 31.12.2027 -
Daniel Barrea Godoy Cruz Actif 131 / 121 40% 2 29.12.2027 -
Lorenzo Barrera Agropecuario Argentino Actif 105 / 89 40% 2 29.12.2027 -
Santiago Sala Güemes Actif 107 / 124 40% 1 29.12.2027 -
Vladislav Yakovlev Volga Actif 97 / 98 40% 1 26.12.2027 -
Angel Uñates Güemes Actif 99 / 96 40% 1 26.12.2027 -
Santiago Apa All Boys Actif 107 / 102 40% 2 23.12.2027 -
Edgar Sevikyan Ferencvaros Actif 111 / 123 40% 2 23.12.2027 -
Denis M. Kovalevich Dinamo Brest Actif 106 / 102 40% 2 22.12.2027 -
Elías Ayala Madryn Actif 103 / 100 40% 1 22.12.2027 -
Marco Miori Alvarado Actif 110 / 102 40% 1 22.12.2027 -
Tyrese Spicer Orlando City Actif 110 / 116 40% 3 21.12.2027 -
Genaro Rossi San Martín SJ Actif 111 / 118 40% 2 21.12.2027 -
Vladislav Yatskevich BATE Actif 107 / 96 40% 1 21.12.2027 -
Johar Mejía Banfield Actif 112 / 119 40% 2 18.12.2027 -
Tobías Cervera Gimnasia y Esgrima Actif 119 / 126 40% 2 18.12.2027 -
Elías Ovelar General Diaz Actif 102 / 80 40% 1 18.12.2027 -
Luciano Riveros San Martín SJ Actif 119 / 104 40% 2 17.12.2027 -
Ramiro Ruiz Rodríguez Atlético Tucumán Actif 121 / 122 40% 1 17.12.2027 -
Jefry Zapata Aldosivi Actif 113 / 122 40% 2 10.12.2027 -
Fabricio Rojas Khazar Actif 104 / 122 40% 2 10.12.2027 -
Owen Falconis Cerrito Actif 104 / 110 40% 1 10.12.2027 -
Sebastián Cocimano Nueva Chicago Actif 115 / 99 40% 3 09.12.2027 -
Tosin Olawale El-Kanemi Warriors Actif 100 / 101 40% 1 09.12.2027 -
Sunday Megwo Abia Warriors Actif 94 / 103 40% 2 03.12.2027 -
Algassime Bah Dinamo Tbilisi Actif 101 / 109 40% 2 03.12.2027 -
Julen Cordero Samtredia Actif 96 / 99 40% 2 03.12.2027 -
Augusto Berrondo Tristán Suárez Actif 106 / 106 40% 2 30.11.2027 -
Josephat Lopaga Kakamega Homeboyz Actif 99 / 103 40% 2 29.11.2027 -
Facundo Krüger Temperley Actif 127 / 116 40% 1 29.11.2027 -
Mauro Valiente Estudiantes Actif 106 / 118 40% 4 26.11.2027 -
Sebastián Parada San Luis Actif 90 / 104 40% 2 20.11.2027 -
Sebastián Marfort Racing Actif 114 / 98 40% 1 20.11.2027 -
Lucas Pedraza Defensores Unidos Actif 107 / 105 40% 1 06.11.2027 -
Cristian Rivas Bogota Actif 97 / 116 40% 1 29.10.2027 -
Franco Ayunta Temperley Actif 113 / 104 40% 1 25.10.2027 -
Hassan Beja AFC Leopards Actif 78 / 82 40% 1 25.10.2027 -
Santiago Guzmán Wanderers Actif 101 / 116 40% 1 24.10.2027 -
Yegor Kortsov Dinamo Brest Actif 117 / 117 40% 2 17.10.2027 -
Joel Orlando Almagro Actif 122 / 118 40% 1 17.10.2027 -
Enzo González Defensores Actif 111 / 99 40% 1 16.10.2027 -
Daouda Natama Minsk Actif 98 / 85 40% 1 05.10.2027 -
Johan Campaña Patriotas Actif 104 / 114 40% 1 06.08.2027 -
Simone Rabbi Ravenna Actif 125 / 105 40% 1 04.08.2027 -
Juan Esteban Ávalo Aguilas Doradas Actif 100 / 105 40% 1 04.08.2027 -
Kees de Boer Salernitana Actif 112 / 110 40% 1 02.08.2027 -
Giuseppe Di Serio Spezia Actif 124 / 110 40% 1 02.08.2027 -
Francis Gomez Cardiff City Actif 122 / 127 40% 1 26.07.2027 -
Sandi Zajc NK Domzale Actif 112 / 101 69% 1 02.06.2027 Approuver
Fran Tomek Koper Actif 99 / 119 69% 1 05.01.2027 Approuver
Hilal Soudani Actif 111 / 107 69% 1 03.01.2027 Approuver
Dino Kojić Olimpija Ljubljana Actif 113 / 128 69% 1 01.01.2027 Approuver